Time,TemperatureF,DewpointF,PressureIn,WindDirection,WindDirectionDegrees,WindSpeedMPH,WindSpeedGustMPH,Humidity,HourlyPrecipIn,Conditions,Clouds,dailyrainin,SoftwareType,DateUTC
2013-06-24 00:02:00,77.0,75.0,30.15,East,94,5.0,8.0,95,1.79,,,-99.99,,2013-06-24 04:02:00,
2013-06-24 00:12:00,77.0,75.0,30.15,East,100,5.0,8.0,95,1.79,,,-99.99,,2013-06-24 04:12:00,
2013-06-24 00:22:00,77.0,75.0,30.15,East,100,5.0,8.0,95,1.79,,,-99.99,,2013-06-24 04:22:00,
2013-06-24 00:33:00,76.0,75.0,30.15,ESE,111,5.0,7.0,96,1.79,,,-99.99,,2013-06-24 04:33:00,
2013-06-24 00:43:00,76.0,75.0,30.15,ESE,108,6.0,7.0,97,1.79,,,-99.99,,2013-06-24 04:43:00,
2013-06-24 00:52:00,76.0,76.0,30.14,East,100,6.0,8.0,99,1.79,,,-99.99,,2013-06-24 04:52:00,
2013-06-24 01:02:00,76.0,76.0,30.15,East,96,6.0,8.0,100,1.79,,,-99.99,,2013-06-24 05:02:00,
2013-06-24 01:12:00,76.0,76.0,30.15,East,94,6.0,7.0,100,1.79,,,-99.99,,2013-06-24 05:12:00,
2013-06-24 01:22:00,76.0,76.0,30.14,ESE,105,6.0,7.0,100,1.79,,,-99.99,,2013-06-24 05:22:00,
2013-06-24 01:35:00,76.0,76.0,30.14,East,100,6.0,7.0,100,1.79,,,-99.99,,2013-06-24 05:35:00,
2013-06-24 01:46:00,75.0,75.0,30.14,East,84,6.0,7.0,100,1.79,,,-99.99,,2013-06-24 05:46:00,
2013-06-24 01:53:00,75.0,75.0,30.13,ESE,103,5.0,7.0,100,1.79,,,-99.99,,2013-06-24 05:53:00,
2013-06-24 02:14:00,75.0,75.0,30.13,ESE,111,5.0,6.0,100,1.79,,,-99.99,,2013-06-24 06:14:00,
2013-06-24 02:37:00,75.0,75.0,30.13,East,100,6.0,8.0,100,1.79,,,-99.99,,2013-06-24 06:37:00,
2013-06-24 02:45:00,75.0,75.0,30.13,East,98,6.0,7.0,100,1.79,,,-99.99,,2013-06-24 06:45:00,
2013-06-24 02:52:00,75.0,75.0,30.13,East,84,6.0,7.0,100,1.79,,,-99.99,,2013-06-24 06:52:00,
2013-06-24 03:05:00,75.0,75.0,30.13,East,82,5.0,7.0,100,1.79,,,-99.99,,2013-06-24 07:05:00,
2013-06-24 03:14:00,75.0,75.0,30.12,East,84,5.0,7.0,100,1.79,,,-99.99,,2013-06-24 07:14:00,
2013-06-24 03:29:00,75.0,75.0,30.12,East,93,4.0,6.0,100,1.79,,,-99.99,,2013-06-24 07:29:00,
2013-06-24 03:47:00,75.0,75.0,30.11,East,101,4.0,6.0,100,1.79,,,-99.99,,2013-06-24 07:47:00,
2013-06-24 04:04:00,75.0,75.0,30.12,ESE,103,5.0,6.0,100,1.79,,,-99.99,,2013-06-24 08:04:00,
2013-06-24 04:14:00,75.0,75.0,30.11,East,93,6.0,7.0,100,1.79,,,-99.99,,2013-06-24 08:14:00,
2013-06-24 04:26:00,75.0,75.0,30.11,ESE,115,5.0,6.0,100,1.79,,,-99.99,,2013-06-24 08:26:00,
2013-06-24 04:35:00,75.0,75.0,30.11,ESE,113,5.0,7.0,100,1.79,,,-99.99,,2013-06-24 08:35:00,
2013-06-24 04:46:00,75.0,75.0,30.11,East,87,4.0,7.0,100,1.79,,,-99.99,,2013-06-24 08:46:00,
2013-06-24 04:52:00,75.0,75.0,30.12,East,101,4.0,6.0,100,1.79,,,-99.99,,2013-06-24 08:52:00,
2013-06-24 05:06:00,75.0,75.0,30.12,East,90,4.0,6.0,100,1.79,,,-99.99,,2013-06-24 09:06:00,
2013-06-24 05:15:00,75.0,75.0,30.12,East,94,5.0,6.0,100,1.79,,,-99.99,,2013-06-24 09:15:00,
2013-06-24 05:37:00,75.0,75.0,30.12,ESE,105,3.0,4.0,100,1.79,,,-99.99,,2013-06-24 09:37:00,
2013-06-24 05:47:00,74.0,74.0,30.12,SE,124,3.0,4.0,100,1.79,,,-99.99,,2013-06-24 09:47:00,
2013-06-24 05:55:00,74.0,74.0,30.12,SE,129,2.0,3.0,100,1.79,,,-99.99,,2013-06-24 09:55:00,
2013-06-24 06:05:00,74.0,74.0,30.12,ESE,107,2.0,3.0,100,1.79,,,-99.99,,2013-06-24 10:05:00,
2013-06-24 06:14:00,74.0,74.0,30.13,East,89,3.0,4.0,100,1.79,,,-99.99,,2013-06-24 10:14:00,
2013-06-24 06:24:00,74.0,74.0,30.13,East,98,4.0,6.0,100,1.79,,,-99.99,,2013-06-24 10:24:00,
2013-06-24 06:37:00,74.0,74.0,30.13,East,91,3.0,4.0,100,1.79,,,-99.99,,2013-06-24 10:37:00,
2013-06-24 06:54:00,74.0,74.0,30.14,East,91,5.0,7.0,100,1.79,,,-99.99,,2013-06-24 10:54:00,
2013-06-24 07:03:00,74.0,74.0,30.13,East,90,6.0,7.0,100,1.79,,,-99.99,,2013-06-24 11:03:00,
2013-06-24 07:15:00,74.0,74.0,30.13,East,82,6.0,7.0,100,1.79,,,-99.99,,2013-06-24 11:15:00,
2013-06-24 07:29:00,75.0,75.0,30.14,East,83,6.0,7.0,100,1.79,,,-99.99,,2013-06-24 11:29:00,
2013-06-24 07:34:00,75.0,75.0,30.14,ENE,76,5.0,8.0,100,1.79,,,-99.99,,2013-06-24 11:34:00,
2013-06-24 07:46:00,75.0,75.0,30.15,ENE,72,4.0,7.0,100,1.79,,,-99.99,,2013-06-24 11:46:00,
2013-06-24 07:55:00,75.0,75.0,30.15,ENE,72,4.0,7.0,100,1.79,,,-99.99,,2013-06-24 11:55:00,
2013-06-24 08:16:00,76.0,76.0,30.15,ENE,72,6.0,8.0,100,1.79,,,-99.99,,2013-06-24 12:16:00,
2013-06-24 08:23:00,77.0,77.0,30.16,ESE,103,5.0,10.0,100,1.79,,,-99.99,,2013-06-24 12:23:00,
2013-06-24 08:36:00,77.0,77.0,30.16,ESE,108,6.0,10.0,100,1.79,,,-99.99,,2013-06-24 12:36:00,
2013-06-24 08:48:00,78.0,76.0,30.16,ESE,108,6.0,10.0,93,1.79,,,-99.99,,2013-06-24 12:48:00,
2013-06-24 09:06:00,80.0,74.0,30.16,East,87,6.0,10.0,82,1.79,,,-99.99,,2013-06-24 13:06:00,
2013-06-24 09:43:00,83.0,73.0,30.17,SE,138,7.0,13.0,71,1.79,,,-99.99,,2013-06-24 13:43:00,
2013-06-24 10:37:00,85.0,72.0,30.18,ESE,108,6.0,10.0,66,1.79,,,-99.99,,2013-06-24 14:37:00,
2013-06-24 10:45:00,86.0,72.0,30.19,East,93,7.0,12.0,64,1.79,,,-99.99,,2013-06-24 14:45:00,
2013-06-24 11:54:00,88.0,70.0,30.19,ESE,122,6.0,11.0,55,1.79,,,-99.99,,2013-06-24 15:54:00,
2013-06-24 13:35:00,90.0,66.0,30.16,ESE,104,7.0,13.0,45,1.79,,,-99.99,,2013-06-24 17:35:00,
2013-06-24 13:46:00,89.0,67.0,30.16,ESE,113,8.0,12.0,48,1.79,,,-99.99,,2013-06-24 17:46:00,
2013-06-24 14:46:00,91.0,67.0,30.14,ESE,104,7.0,13.0,45,1.79,,,-99.99,,2013-06-24 18:46:00,
2013-06-24 15:06:00,91.0,65.0,30.13,East,100,6.0,12.0,43,1.79,,,-99.99,,2013-06-24 19:06:00,
2013-06-24 16:45:00,92.0,68.0,30.10,East,82,8.0,14.0,45,1.79,,,-99.99,,2013-06-24 20:45:00,
2013-06-24 17:46:00,89.0,71.0,30.09,ENE,70,8.0,14.0,56,1.79,,,-99.99,,2013-06-24 21:46:00,
2013-06-24 17:53:00,89.0,72.0,30.09,ENE,75,8.0,12.0,57,1.79,,,-99.99,,2013-06-24 21:53:00,
2013-06-24 18:05:00,89.0,72.0,30.08,ENE,73,7.0,12.0,57,1.79,,,-99.99,,2013-06-24 22:05:00,
2013-06-24 18:47:00,89.0,71.0,30.08,East,86,7.0,13.0,55,1.79,,,-99.99,,2013-06-24 22:47:00,
2013-06-24 18:55:00,90.0,71.0,30.08,East,87,10.0,14.0,53,1.79,,,-99.99,,2013-06-24 22:55:00,
2013-06-24 19:05:00,89.0,70.0,30.08,East,89,9.0,16.0,53,1.79,,,-99.99,,2013-06-24 23:05:00,
2013-06-24 19:14:00,89.0,70.0,30.08,East,100,6.0,10.0,53,1.79,,,-99.99,,2013-06-24 23:14:00,
2013-06-24 19:27:00,88.0,69.0,30.09,ESE,110,10.0,15.0,54,1.79,,,-99.99,,2013-06-24 23:27:00,
2013-06-24 19:34:00,87.0,69.0,30.09,ESE,104,8.0,14.0,56,1.79,,,-99.99,,2013-06-24 23:34:00,
2013-06-24 19:45:00,87.0,70.0,30.09,East,94,9.0,14.0,57,1.79,,,-99.99,,2013-06-24 23:45:00,
2013-06-24 19:53:00,86.0,70.0,30.09,East,101,9.0,15.0,59,1.79,,,-99.99,,2013-06-24 23:53:00,
2013-06-24 20:12:00,85.0,70.0,30.10,East,101,8.0,13.0,62,1.79,,,-99.99,,2013-06-25 00:12:00,
2013-06-24 20:24:00,84.0,70.0,30.10,East,93,7.0,10.0,63,1.79,,,-99.99,,2013-06-25 00:24:00,
2013-06-24 20:34:00,84.0,70.0,30.09,East,91,7.0,11.0,63,1.79,,,-99.99,,2013-06-25 00:34:00,
2013-06-24 20:46:00,83.0,70.0,30.09,East,82,7.0,10.0,65,1.79,,,-99.99,,2013-06-25 00:46:00,
2013-06-24 20:54:00,83.0,71.0,30.10,ENE,70,7.0,13.0,67,1.79,,,-99.99,,2013-06-25 00:54:00,
2013-06-24 21:04:00,82.0,70.0,30.10,East,89,7.0,10.0,68,1.79,,,-99.99,,2013-06-25 01:04:00,
2013-06-24 21:16:00,82.0,71.0,30.10,East,83,7.0,10.0,69,1.79,,,-99.99,,2013-06-25 01:16:00,
2013-06-24 23:15:00,79.0,72.0,30.14,East,87,7.0,10.0,79,1.79,,,-99.99,,2013-06-25 03:15:00,
2013-06-24 23:43:00,78.0,72.0,30.14,East,97,7.0,9.0,81,1.79,,,-99.99,,2013-06-25 03:43:00,